We konden geen weer-waarchuwingen ophalen. Ga rechtstreeks naar de Meteoalarm site : www.meteoalarm.eu en controleer daar .



Onweer radar Meer informatie blitzortung!


Regen radar Meer informatie rain snow radar


Bezoek onze andere website:

Template documentation
and downloads

And another site



15 daagse weersverwachting Brescia (IT)

  • Overzicht
  • Per uur
  • 15 dagen
  • Extra
  • Vergelijk
  • Kaarten
  • Dagkaart
  • Meer »
  • Info
  • Statistieken
  • Directe link
    Temp 6h Neerslag Wind  
 06:24     20:23    Daglengte: 13:59 Vandaag
14:00
30°
 
3
20:00
26°
0.2 mm
2
 06:25     20:21    Daglengte: 13:56 Morgen
02:00
23°
0.7 mm
4
warningclass
08:00
21°
6.6 mm
2
warningclass
14:00
24°
13.8 mm
3
20:00
22°
11.9 mm
2
 06:26     20:20    Daglengte: 13:54 Vrijdag 19 Aug
02:00
20°
13.7 mm
1
warningclass
08:00
19°
43.9 mm
2
14:00
23°
19.6 mm
3
warningclass
20:00
23°
12.3 mm
2
 06:27     20:18    Daglengte: 13:51 Zaterdag 20 Aug
02:00
20°
 
1
08:00
21°
 
1
Locatie info
Region: Lombardia
Latitude: 45.5369°N
Longitude: 10.2320°E
146 masl
Postcode: 25123
Temp/Neerslag /Baro Onweer/Dauwpunt
    Temp Baro 1h Neerslag Dauwpunt Wind UV Bewolking  
 06:24     20:23    Daglengte: 13:59 Vandaag
12:00
29°
1013.3 hPa   16.9°
3
Windvlaag: 4.8 m/s
23%
13:00
30°
1012.9 hPa   16.6°
3
Windvlaag: 5.8 m/s
19%
14:00
30°
1012.7 hPa   16.2°
3
Windvlaag: 6 m/s
57%
15:00
30°
Voelt als: 30.3°
1012.4 hPa   15.9°
3
Windvlaag: 5.9 m/s
34%
16:00
30°
1011.7 hPa   16.1°
3
Windvlaag: 5.4 m/s
44%
17:00
30°
Voelt als: 29.7°
1011.4 hPa   14.7°
3
Windvlaag: 5.6 m/s
73%
18:00
29°
1011.6 hPa
78%
15.8°
3
Windvlaag: 5.6 m/s
86%
19:00
27°
1011.4 hPa 0.2 mm
80%
16.7°
3
Windvlaag: -1.5 m/s
81%
20:00
26°
1011.3 hPa
82%
16.1°
2
Windvlaag: 1.6 m/s
76%
21:00
25°
1011.9 hPa
79%
19.1°
2
Windvlaag: -0.8 m/s
78%
22:00
24°
1012.4 hPa
72%
19.3°
2
Windvlaag: -1.4 m/s
78%
23:00
24°
1012.0 hPa 0.7 mm
79%
18.9°
3
Windvlaag: -5 m/s
78%
 06:25     20:21    Daglengte: 13:56 Morgen
00:00
23°
1011.8 hPa
71%
19.0°
3
Windvlaag: -4.4 m/s
79%
01:00
23°
1011.6 hPa
77%
17.1°
4
Windvlaag: -4.9 m/s
79%
02:00
23°
1011.3 hPa
68%
15.1°
4
Windvlaag: -5 m/s
83%
03:00
23°
1011.1 hPa
74%
15.8°
3
Windvlaag: -3 m/s
82%
04:00
23°
1010.8 hPa
82%
18.2°
2
Windvlaag: -3.8 m/s
83%
05:00
21°
1010.6 hPa 0.7 mm
82%
17.1°
3
Windvlaag: -1.9 m/s
85% warningclass
06:00
21°
1010.7 hPa
82%
16.0°
3
Windvlaag: 1.2 m/s
86% warningclass
07:00
21°
1011.1 hPa 3.2 mm
82%
15.8°
3
Windvlaag: 0.1 m/s
86% warningclass
08:00
21°
1011.1 hPa 2.7 mm
82%
16.9°
2
Windvlaag: -0.1 m/s
86% warningclass
09:00
21°
1010.6 hPa 3.0 mm
82%
16.7°
3
Windvlaag: 2.8 m/s
83% warningclass
10:00
23°
1011.0 hPa 2.1 mm
82%
17.8°
3
Windvlaag: 7 m/s
85% warningclass
11:00
22°
1010.8 hPa 3.3 mm
82%
14.1°
2
Windvlaag: 8.6 m/s
84% warningclass
12:00
23°
1010.5 hPa
82%
14.0°
2
Windvlaag: 4.2 m/s
81% warningclass
13:00
25°
1010.6 hPa 2.9 mm
80%
14.1°
2
Windvlaag: 2.9 m/s
70%
14:00
24°
1010.3 hPa 2.5 mm
79%
13.5°
3
Windvlaag: 3.2 m/s
47%
15:00
25°
1009.7 hPa 2.1 mm
82%
14.6°
3
Windvlaag: 0.4 m/s
86%
16:00
24°
1009.8 hPa 2.8 mm
82%
15.9°
4
Windvlaag: 5.5 m/s
86% warningclass
17:00
23°
1009.1 hPa
82%
14.8°
3
Windvlaag: 4.8 m/s
86% warningclass
18:00
23°
1008.9 hPa
82%
15.2°
3
Windvlaag: 2.5 m/s
81% warningclass
19:00
23°
1008.8 hPa 3.6 mm
82%
15.8°
2
Windvlaag: 5 m/s
77% warningclass
20:00
22°
1008.7 hPa 3.4 mm
82%
16.0°
2
Windvlaag: 1 m/s
77%
21:00
21°
1009.2 hPa
42%
17.8°
3
Windvlaag: 0.6 m/s
70%
22:00
20°
1009.2 hPa 3.9 mm
82%
17.7°
2
Windvlaag: -0.2 m/s
77%
23:00
20°
1008.9 hPa 2.9 mm
82%
18.0°
1
Windvlaag: 0.1 m/s
65%
 06:26     20:20    Daglengte: 13:54 Vrijdag 19 Aug
00:00
20°
1009.0 hPa 2.9 mm
75%
17.6°
2
Windvlaag: -0.5 m/s
82% warningclass
01:00
20°
1008.4 hPa 4.0 mm
82%
17.6°
1
Windvlaag: 1.5 m/s
82% warningclass
02:00
20°
1007.4 hPa
82%
18.0°
1
Windvlaag: 1.4 m/s
80% warningclass
03:00
20°
1007.1 hPa
82%
18.1°
1
Windvlaag: 1.2 m/s
83%
04:00
20°
1007.0 hPa
82%
18.2°
1
Windvlaag: -0.3 m/s
85% warningclass
05:00
19°
1007.3 hPa 8.1 mm
100%
15.8°
1
Windvlaag: -0.9 m/s
100%
06:00
19°
1007.5 hPa 20.9 mm
100%
15.3°
1
Windvlaag: -0.8 m/s
99%
07:00
19°
1008.2 hPa 12.0 mm
100%
14.7°
1
Windvlaag: -1.4 m/s
96%
08:00
19°
1008.3 hPa 3.0 mm
100%
14.3°
2
Windvlaag: -0.4 m/s
94%
09:00
20°
1008.8 hPa 2.4 mm
100%
14.3°
1
Windvlaag: 1.4 m/s
88%
10:00
21°
1009.0 hPa 2.7 mm
100%
14.1°
1
Windvlaag: 0.7 m/s
88% warningclass
11:00
21°
1009.4 hPa 2.3 mm
100%
14.1°
2
Windvlaag: 0.8 m/s
83%
12:00
22°
1009.7 hPa 5.2 mm
100%
14.7°
2
Windvlaag: 0.3 m/s
71% warningclass
13:00
23°
1009.8 hPa 4.4 mm
96%
15.0°
3
Windvlaag: -0.2 m/s
74% warningclass
14:00
23°
1009.7 hPa 2.6 mm
92%
15.2°
3
Windvlaag: -0.1 m/s
83% warningclass
15:00
23°
1009.5 hPa 4.0 mm
95%
14.5°
3
Windvlaag: 0 m/s
76% warningclass
16:00
24°
1009.6 hPa 4.1 mm
90%
14.5°
2
Windvlaag: 0.6 m/s
85% warningclass
17:00
24°
1009.6 hPa 4.2 mm
83%
11.0°
3
Windvlaag: 0.7 m/s
39%
18:00
25°
1009.4 hPa
75%
11.2°
3
Windvlaag: 0.4 m/s
38%
19:00
24°
1009.5 hPa
25%
10.9°
3
Windvlaag: 0.2 m/s
12%
20:00
23°
1009.7 hPa
21%
13.3°
2
Windvlaag: 0.5 m/s
37%
21:00
22°
1010.3 hPa
21%
14.2°
2
Windvlaag: 0.6 m/s
16%
22:00
22°
1010.8 hPa
21%
13.8°
1
Windvlaag: 0.7 m/s
12%
23:00
21°
1011.0 hPa
21%
12.8°
1
Windvlaag: -0 m/s
18%
 06:27     20:18    Daglengte: 13:51 Zaterdag 20 Aug
00:00
21°
1011.0 hPa
21%
10.1°
1
Windvlaag: 4.1 m/s
17%
01:00
21°
1011.1 hPa
21%
9.0°
1
Windvlaag: 4.1 m/s
16%
02:00
20°
1011.0 hPa
21%
7.8°
1
Windvlaag: 3.7 m/s
14%
03:00
20°
1011.2 hPa
21%
8.3°
1
Windvlaag: 1.4 m/s
8%
04:00
20°
1011.3 hPa
21%
8.7°
2
Windvlaag: 4.3 m/s
4%
05:00
20°
1011.3 hPa
21%
8.6°
2
Windvlaag: 3.7 m/s
3%
06:00
19°
1011.4 hPa
21%
7.8°
2
Windvlaag: 3.8 m/s
5%
07:00
20°
1011.8 hPa
21%
5.2°
2
Windvlaag: 5.7 m/s
0%
08:00
21°
1012.2 hPa
21%
7.0°
1
Windvlaag: 5.2 m/s
0%
09:00
25°
1013.1 hPa 11.5 mm
100%
9.9°
2
Windvlaag: 3.1 m/s
0%
10:00
26°
Voelt als: 26.2°
1013.1 hPa 11.5 mm
100%
9.5°
1
Windvlaag: 1.8 m/s
0%
11:00
28°
Voelt als: 26.9°
1013.1 hPa 11.5 mm
100%
9.8°
2
Windvlaag: 1.9 m/s
0%
Temp/Neerslag /Baro Onweer/Dauwpunt
    Temp Baro Neerslag Dauwpunt Wind Bewolking  
 06:24     20:23    Daglengte: 13:59 Vandaag
14:00
30°
1012.7 hPa   16.2°
3
57%
17:00
30°
Voelt als: 29.7°
1011.4 hPa   14.7°
3
73%
20:00
26°
1011.3 hPa 0.2 mm 16.1°
2
76%
23:00
24°
1012.0 hPa 0.7 mm 18.9°
3
78%
 06:25     20:21    Daglengte: 13:56 Morgen
02:00
23°
1011.3 hPa   15.1°
4
83%
05:00
21°
1010.6 hPa 0.7 mm 17.1°
3
85% warningclass
08:00
21°
1011.1 hPa 5.9 mm 16.9°
2
86% warningclass
11:00
22°
1010.8 hPa 8.4 mm 14.1°
2
84% warningclass
14:00
24°
1010.3 hPa 5.4 mm 13.5°
3
47%
17:00
23°
1009.1 hPa 4.9 mm 14.8°
3
86% warningclass
20:00
22°
1008.7 hPa 7.0 mm 16.0°
2
77%
23:00
20°
1008.9 hPa 6.8 mm 18.0°
1
65%
 06:26     20:20    Daglengte: 13:54 Vrijdag 19 Aug
02:00
20°
1007.4 hPa 6.9 mm 18.0°
1
80% warningclass
05:00
19°
1007.3 hPa 8.1 mm 15.8°
1
100%
08:00
19°
1008.3 hPa 35.8 mm 14.3°
2
94%
11:00
21°
1009.4 hPa 7.4 mm 14.1°
2
83%
14:00
23°
1009.7 hPa 12.1 mm 15.2°
3
83% warningclass
17:00
24°
1009.6 hPa 12.3 mm 11.0°
3
39%
20:00
23°
1009.7 hPa   13.3°
2
37%
23:00
21°
1011.0 hPa   12.8°
1
18%
 06:27     20:18    Daglengte: 13:51 Zaterdag 20 Aug
02:00
20°
1011.0 hPa   7.8°
1
14%
05:00
20°
1011.3 hPa   8.6°
2
3%
08:00
21°
1012.2 hPa   7.0°
1
0%
11:00
28°
Voelt als: 26.9°
1013.1 hPa 34.6 mm 9.8°
2
0%
14:00
31°
Voelt als: 29.4°
1012.5 hPa 34.6 mm 10.1°
3
29%
17:00
29°
Voelt als: 28.7°
1012.6 hPa 53.7 mm 12.8°
1
0%
20:00
24°
1013.0 hPa 53.7 mm 16.2°
1
0%
23:00
22°
1014.2 hPa 53.7 mm 13.9°
2
0%
 06:29     20:16    Daglengte: 13:47 Zondag 21 Aug
02:00
21°
1014.3 hPa 53.7 mm 13.2°
2
0%
05:00
20°
1014.3 hPa 53.7 mm 13.1°
1
0%
08:00
21°
1014.7 hPa 53.7 mm 14.7°
1
0%
11:00
27°
1014.2 hPa 53.7 mm 14.9°
1
0%
14:00
29°
Voelt als: 29.0°
1013.1 hPa 53.7 mm 14.6°
2
0%
17:00
29°
Voelt als: 28.8°
1011.5 hPa 53.7 mm 15.4°
2
1%
20:00
24°
1011.1 hPa 53.8 mm 15.7°
2
1%
23:00
22°
1011.6 hPa 53.9 mm 14.4°
3
1%
 06:30     20:15    Daglengte: 13:45 Maandag 22 Aug
02:00
20°
1011.5 hPa 54.4 mm 16.4°
2
1%
05:00
19°
1011.6 hPa 55.1 mm 16.4°
1
1%
08:00
20°
1012.8 hPa 55.6 mm 17.4°
2
1%
11:00
26°
1012.9 hPa 56.0 mm 14.3°
2
1%
14:00
27°
Voelt als: 27.3°
1012.7 hPa 56.6 mm 13.7°
4
1%
17:00
27°
Voelt als: 27.2°
1011.8 hPa 57.2 mm 13.2°
3
0%
20:00
23°
1012.1 hPa 57.5 mm 14.3°
2
1%
23:00
22°
1013.1 hPa 57.5 mm 13.9°
2
1%
 06:31     20:13    Daglengte: 13:42 Dinsdag 23 Aug
02:00
20°
1013.1 hPa 57.5 mm 14.0°
2
1%
05:00
19°
1013.2 hPa 57.5 mm 13.1°
2
0%
08:00
21°
1014.3 hPa 57.5 mm 14.2°
1
0%
11:00
27°
1014.2 hPa 57.5 mm 14.1°
1
1%
14:00
29°
Voelt als: 28.8°
1013.2 hPa 57.6 mm 13.2°
2
0%
17:00
30°
Voelt als: 28.9°
1012.4 hPa 57.6 mm 13.3°
3
0%
20:00
25°
1013.2 hPa 57.6 mm 14.7°
2
0%
23:00
22°
1014.2 hPa 57.6 mm 14.3°
2
1%
 06:32     20:11    Daglengte: 13:39 Woensdag 24 Aug
02:00
21°
1014.7 hPa 57.6 mm 14.0°
2
0%
05:00
21°
1014.0 hPa 57.6 mm 13.5°
2
1%
08:00
22°
1014.7 hPa 57.6 mm 14.7°
1
1%
11:00
28°
Voelt als: 27.8°
1014.6 hPa   14.8°
1
1%
14:00
31°
Voelt als: 29.8°
1013.5 hPa 115.2 mm 12.6°
2
0%
20:00
25°
1012.9 hPa 115.2 mm 14.1°
2
0%
 06:33     20:09    Daglengte: 13:36 Donderdag 25 Aug
02:00
22°
1014.5 hPa 115.2 mm 13.7°
2
0%
08:00
23°
1014.8 hPa 115.2 mm 14.4°
1
0%
14:00
31°
Voelt als: 30.1°
1014.4 hPa 115.3 mm 12.4°
3
0%
20:00
26°
1014.2 hPa 115.4 mm 15.5°
2
1%
 06:35     20:07    Daglengte: 13:32 Vrijdag 26 Aug
02:00
22°
1015.7 hPa 115.4 mm 13.0°
2
0%
08:00
23°
1016.3 hPa 115.4 mm 13.6°
1
1%
14:00
33°
Voelt als: 31.9°
1015.2 hPa 115.4 mm 12.6°
2
0%
20:00
27°
1014.5 hPa 115.4 mm 14.4°
2
1%
 06:36     20:06    Daglengte: 13:30 Zaterdag 27 Aug
02:00
24°
1016.4 hPa 115.4 mm 13.2°
1
1%
08:00
22°
1018.1 hPa 0.4 mm 14.8°
2
40%
14:00
32°
Voelt als: 30.7°
1016.6 hPa 0.2 mm 12.9°
2
31%
20:00
26°
1017.0 hPa 0.4 mm 12.6°
1
31%
 06:37     20:04    Daglengte: 13:27 Zondag 28 Aug
02:00
22°
1019.2 hPa 0.7 mm 13.5°
3
40%
08:00
22°
1019.5 hPa 0.6 mm 14.7°
2
34%
14:00
32°
Voelt als: 30.7°
1018.2 hPa 0.2 mm 12.9°
2
28%
20:00
26°
1018.2 hPa 0.4 mm 13.1°
1
32%
 06:38     20:02    Daglengte: 13:24 Maandag 29 Aug
02:00
22°
1020.1 hPa 0.2 mm 13.8°
3
35%
08:00
22°
1020.3 hPa 0.4 mm 14.9°
2
36%
14:00
32°
Voelt als: 30.9°
1018.7 hPa 0.2 mm 13.8°
2
20%
20:00
26°
1018.3 hPa 0.3 mm 13.4°
1
21%
 06:39     20:00    Daglengte: 13:21 Dinsdag 30 Aug
02:00
21°
1019.9 hPa 0.7 mm 14.0°
2
31%
08:00
22°
1019.7 hPa 0.5 mm 14.6°
2
35%
14:00
31°
Voelt als: 30.6°
1017.8 hPa 0.3 mm 13.9°
2
28%
20:00
26°
1017.2 hPa 0.6 mm 13.8°
1
27%
 06:41     19:58    Daglengte: 13:17 Woensdag 31 Aug
02:00
21°
1018.8 hPa 0.2 mm 14.1°
2
39%
08:00
22°
1018.3 hPa 0.6 mm 14.6°
2
45%
14:00
31°
Voelt als: 30.2°
1016.4 hPa 0.4 mm 13.6°
2
29%
20:00
25°
1016.0 hPa 0.7 mm 13.6°
1
38%
 06:42     19:56    Daglengte: 13:14 Donderdag 01 Sep
02:00
21°
1017.6 hPa   14.0°
2
46%
08:00
21°
1017.5 hPa 0.4 mm 13.9°
2
38%
  CAPE Lifted Index Hail Supercell Tornado SRH 3km CL BTM PRES CL TOP PRES Swiss DWD icon SMHI TS
 06:24     20:23    Daglengte: 13:59 Vandaag
12:00 404 J/kg -1.0 K 0 % 0 % 0 % 0 m²/s² 0 0 2.24 3
13:00 669 J/kg -2.2 K 0 % 0 % 0 % 0 m²/s² 0 0 0.02 2
14:00 620 J/kg -2.7 K 0 % 0 % 0 % 0 m²/s² 0 0 -1.29 3
15:00 686 J/kg -3.0 K 0 % 0 % 0 % 0 m²/s² 0 0 -2.07 3
16:00 896 J/kg -3.1 K 0 % 0 % 0 % 0 m²/s² 0 0 -2.23 3
17:00 856 J/kg -2.7 K 0 % 0 % 0 % 0 m²/s² 0 0 -1.62 3
18:00 896 J/kg -3.0 K 0 % 0 % 0 % 0 m²/s² 0 0 -2.82 3
19:00 616 J/kg -1.7 K 0 % 0 % 0 % 0 m²/s² 0 0 -1.01 61
20:00 601 J/kg -2.1 K 0 % 0 % 0 % 0 m²/s² 0 0 -1.62 61
21:00 676 J/kg -1.7 K 0 % 0 % 0 % 0 m²/s² 0 0 -0.47 3
22:00 1166 J/kg -3.5 K 0 % 0 % 0 % 0 m²/s² 0 0 -2.21 3
23:00 1097 J/kg -3.4 K 0 % 0 % 0 % 0 m²/s² 0 0 -1.81 61
 06:25     20:21    Daglengte: 13:56 Morgen
00:00 898 J/kg -4.1 K 0 % 0 % 0 % 0 m²/s² 0 0 -3.23 3
01:00 817 J/kg -4.9 K 0 % 0 % 0 % 0 m²/s² 0 0 -3.91 3
02:00 863 J/kg -5.6 K 0 % 0 % 0 % 0 m²/s² 0 0 -4.25 3
03:00 850 J/kg -5.9 K 0 % 0 % 0 % 0 m²/s² 0 0 -4.76 3
04:00 615 J/kg -5.6 K 0 % 0 % 0 % 0 m²/s² 0 0 -4.73 3
05:00 458 J/kg -6.3 K 0 % 0 % 0 % 0 m²/s² 0 0 -5.16 80
06:00 337 J/kg -5.7 K 0 % 0 % 0 % 0 m²/s² 0 0 -4.68 95
07:00 531 J/kg -5.4 K 0 % 0 % 0 % 0 m²/s² 0 0 -5.31 95
08:00 600 J/kg -5.3 K 0 % 0 % 0 % 0 m²/s² 0 0 -4.76 95
09:00 810 J/kg -4.4 K 0 % 0 % 0 % 0 m²/s² 0 0 -4.4 81
10:00 761 J/kg -4.6 K 0 % 0 % 0 % 0 m²/s² 0 0 -3.76 95
11:00 0 J/kg -1.4 K 0 % 0 % 0 % 0 m²/s² 0 0 -0.32 95
12:00 0 J/kg -0.5 K 0 % 0 % 0 % 0 m²/s² 0 0 0.7 95
13:00 0 J/kg 1.5 K 0 % 0 % 0 % 0 m²/s² 0 0 2.97 80
14:00 0 J/kg -1.0 K 0 % 0 % 0 % 0 m²/s² 0 0 -0.37 3
15:00 88 J/kg -1.8 K 0 % 0 % 0 % 0 m²/s² 0 0 -1.77 80
16:00 243 J/kg -0.9 K 0 % 0 % 0 % 0 m²/s² 0 0 -0.12 95
17:00 120 J/kg -1.1 K 0 % 0 % 0 % 0 m²/s² 0 0 4.27 95
18:00 0 J/kg -0.5 K 0 % 0 % 0 % 0 m²/s² 0 0 4.84 96
19:00 0 J/kg -0.3 K 0 % 0 % 0 % 0 m²/s² 0 0 6.75 95
20:00 0 J/kg -0.6 K 0 % 0 % 0 % 0 m²/s² 0 0 5.64 80
21:00 189 J/kg -1.7 K 0 % 0 % 0 % 0 m²/s² 0 0 3.76 3
22:00 272 J/kg -2.9 K 0 % 0 % 0 % 0 m²/s² 0 0 0.79 80
23:00 272 J/kg -2.8 K 0 % 0 % 0 % 0 m²/s² 0 0 -0.1 80
 06:26     20:20    Daglengte: 13:54 Vrijdag 19 Aug
00:00 335 J/kg -4.2 K 0 % 0 % 0 % 0 m²/s² 0 0 -1.08 95
01:00 318 J/kg -4.8 K 0 % 0 % 0 % 0 m²/s² 0 0 -0.66 95
02:00 224 J/kg -5.0 K 0 % 0 % 0 % 0 m²/s² 0 0 -0.29 95
03:00 288 J/kg -5.4 K 0 % 0 % 0 % 0 m²/s² 0 0 -0.93 65
04:00 339 J/kg -4.6 K 0 % 0 % 0 % 0 m²/s² 0 0 0.08 95
05:00 399 J/kg -4.6 K 0 % 0 % 0 % 0 m²/s² 0 0 0.2 65
06:00 360 J/kg -4.0 K 0 % 0 % 0 % 0 m²/s² 0 0 0.44 65
07:00 407 J/kg -4.4 K 0 % 0 % 0 % 0 m²/s² 0 0 -0.98 65
08:00 364 J/kg -4.2 K 0 % 0 % 0 % 0 m²/s² 0 0 -0.69 61
09:00 710 J/kg -4.6 K 0 % 0 % 0 % 0 m²/s² 0 0 -1.78 61
10:00 872 J/kg -5.1 K 0 % 0 % 0 % 0 m²/s² 0 0 -2.52 61
11:00 1102 J/kg -4.8 K 0 % 0 % 0 % 0 m²/s² 0 0 -1.89 80
12:00 1178 J/kg -5.1 K 0 % 0 % 0 % 0 m²/s² 0 0 -2.88 95
13:00 1203 J/kg -5.4 K 0 % 0 % 0 % 0 m²/s² 0 0 -2.67 95
14:00 1088 J/kg -5.1 K 0 % 0 % 0 % 0 m²/s² 0 0 -2.58 80
15:00 1030 J/kg -4.7 K 0 % 0 % 0 % 0 m²/s² 0 0 -2.39 3
16:00 979 J/kg -4.2 K 0 % 0 % 0 % 0 m²/s² 0 0 -2.49 3
17:00 0 J/kg 0.9 K 0 % 0 % 0 % 0 m²/s² 0 0 2.22 3
18:00 0 J/kg -0.4 K 0 % 0 % 0 % 0 m²/s² 0 0 0.77 3
19:00 24 J/kg -0.2 K 0 % 0 % 0 % 0 m²/s² 0 0 0.7 3
20:00 47 J/kg -0.5 K 0 % 0 % 0 % 0 m²/s² 0 0 0.52 3
21:00 50 J/kg -0.8 K 0 % 0 % 0 % 0 m²/s² 0 0 0.82 2
22:00 26 J/kg -0.3 K 0 % 0 % 0 % 0 m²/s² 0 0 0.93 3
23:00 0 J/kg 2.1 K 0 % 0 % 0 % 0 m²/s² 0 0 2.67 2
 06:27     20:18    Daglengte: 13:51 Zaterdag 20 Aug
00:00 0 J/kg 2.7 K 0 % 0 % 0 % 0 m²/s² 0 0 2.91 2
01:00 0 J/kg 3.2 K 0 % 0 % 0 % 0 m²/s² 0 0 3.41 2
02:00 0 J/kg 3.7 K 0 % 0 % 0 % 0 m²/s² 0 0 4.06 2
03:00 0 J/kg 3.8 K 0 % 0 % 0 % 0 m²/s² 0 0 4.52 1
04:00 0 J/kg 4.6 K 0 % 0 % 0 % 0 m²/s² 0 0 5.5 1
05:00 0 J/kg 4.8 K 0 % 0 % 0 % 0 m²/s² 0 0 5.85 1
06:00 0 J/kg 4.3 K 0 % 0 % 0 % 0 m²/s² 0 0 5.35 1
07:00 0 J/kg 4.0 K 0 % 0 % 0 % 0 m²/s² 0 0 5.38 1
08:00 0 J/kg 3.4 K 0 % 0 % 0 % 0 m²/s² 0 0 4.9 0
09:00 0 J/kg 3.1 K 0 % 0 % 0 % 0 m²/s² 0 0 4.84
10:00 0 J/kg 2.4 K 0 % 0 % 0 % 0 m²/s² 0 0 4.14
11:00 0 J/kg 2.1 K 0 % 0 % 0 % 0 m²/s² 0 0 3.78
Temp Baro Wind Neerslag
  EWN Forecast EWN WRFDA DWD ICON FMI HIRLAM MET Norway GFS
 06:24     20:23    Daglengte: 13:59 Vandaag
14:00 30.4° 1012.7 hPa 2.9 m/s 0.0 mm 29.8° 1011.6 hPa 3.3 m/s 0.0 mm 29.1° 1012.8 hPa 1.6 m/s -2.0 mm 31.1° 1012.3 hPa 3.8 m/s 0.0 mm 32.0° 1011.7 hPa 1.1 m/s
17:00 30.0° 1011.4 hPa 2.6 m/s 0.0 mm 32.2° 1008.9 hPa 5.2 m/s 0.0 mm 29.9° 1011.6 hPa 1.8 m/s 0.0 mm 32.4° 1010.8 hPa 3.3 m/s 0.0 mm 29.4° 1012.3 hPa 4.6 m/s
20:00 26.0° 1011.3 hPa 1.8 m/s 0.2 mm 29.3° 1009.6 hPa 3.2 m/s 1.3 mm 24.0° 1013.0 hPa 1.3 m/s 0.4 mm 29.2° 1009.6 hPa 4.1 m/s 0.0 mm 21.7° 1011.8 hPa 1.7 m/s
23:00 23.6° 1012.0 hPa 3.4 m/s 0.7 mm 25.4° 1010.7 hPa 2.9 m/s 1.7 mm 23.3° 1013.2 hPa 2.5 m/s 0.3 mm 24.4° 1010.7 hPa 4.0 m/s 0.0 mm 19.9° 1013.2 hPa 1.3 m/s
 06:25     20:21    Daglengte: 13:56 Morgen
02:00 23.1° 1011.3 hPa 4.3 m/s 0.0 mm 25.0° 1010.0 hPa 4.0 m/s 1.7 mm 22.7° 1012.8 hPa 1.9 m/s 0.1 mm 25.0° 1010.1 hPa 5.2 m/s 0.0 mm 19.8° 1012.4 hPa 1.0 m/s
05:00 21.4° 1010.6 hPa 2.7 m/s 0.7 mm 21.5° 1011.1 hPa 1.7 m/s 1.7 mm 21.2° 1012.4 hPa 1.8 m/s 0.6 mm 22.7° 1009.9 hPa 2.9 m/s 0.0 mm 19.2° 1011.5 hPa 2.5 m/s
08:00 21.1° 1011.1 hPa 2.5 m/s 5.9 mm 23.8° 1010.6 hPa 1.5 m/s 1.7 mm 19.8° 1011.9 hPa 1.4 m/s 16.2 mm 22.7° 1009.3 hPa 6.0 m/s 0.0 mm 18.6° 1012.6 hPa 4.2 m/s
11:00 22.2° 1010.8 hPa 2.1 m/s 8.4 mm 21.3° 1010.0 hPa 9.4 m/s 5.3 mm 20.3° 1012.1 hPa 0.8 m/s 12.8 mm 27.5° 1008.9 hPa 5.2 m/s 0.0 mm 20.7° 1013.3 hPa 1.7 m/s
14:00 24.3° 1010.3 hPa 2.8 m/s 5.4 mm 26.6° 1008.6 hPa 4.8 m/s 23.5 mm 22.8° 1010.9 hPa 2.1 m/s 6.0 mm 29.6° 1008.6 hPa 6.9 m/s 0.0 mm 23.5° 1011.7 hPa 1.1 m/s
17:00 23.5° 1009.1 hPa 3.0 m/s 4.9 mm 22.4° 1007.9 hPa 6.1 m/s 29.3 mm 21.9° 1010.4 hPa 1.3 m/s 3.8 mm 30.7° 1006.4 hPa 7.0 m/s 0.0 mm 21.9° 1010.9 hPa 2.4 m/s
20:00 21.9° 1008.7 hPa 2.4 m/s 7.0 mm 22.8° 1008.0 hPa 3.7 m/s 32.5 mm 20.6° 1009.8 hPa 0.3 m/s 6.6 mm 26.5° 1006.2 hPa 5.9 m/s 0.0 mm 22.2° 1009.2 hPa 1.3 m/s
23:00 20.4° 1008.9 hPa 1.1 m/s 6.8 mm 19.9° 1009.5 hPa 1.4 m/s 32.5 mm 20.0° 1008.8 hPa 0.8 m/s 3.1 mm 23.4° 1008.3 hPa 0.8 m/s 0.0 mm 19.2° 1008.8 hPa 2.9 m/s
 06:26     20:20    Daglengte: 13:54 Vrijdag 19 Aug
02:00 19.9° 1007.4 hPa 1.3 m/s 6.9 mm 19.8° 1007.5 hPa 2.4 m/s 32.5 mm 19.5° 1007.2 hPa 1.3 m/s 7.3 mm 22.2° 1006.8 hPa 1.7 m/s 0.0 mm 16.8° 1008.9 hPa 1.9 m/s
05:00 18.9° 1007.3 hPa 0.9 m/s 8.1 mm 17.9° 1007.1 hPa 0.6 m/s 32.5 mm 19.0° 1006.7 hPa 0.8 m/s 34.3 mm 15.8° 1009.6 hPa 1.5 m/s
08:00 19.4° 1008.3 hPa 1.6 m/s 35.8 mm 20.4° 1007.8 hPa 1.9 m/s 32.5 mm 18.8° 1008.0 hPa 0.3 m/s 51.0 mm 17.8° 1010.3 hPa 1.0 m/s
11:00 21.1° 1009.4 hPa 2.1 m/s 7.4 mm 23.8° 1008.7 hPa 2.9 m/s 32.5 mm 20.3° 1009.2 hPa 1.5 m/s 1.4 mm 22.3° 1011.0 hPa 2.4 m/s
14:00 23.3° 1009.7 hPa 3.0 m/s 12.1 mm 24.4° 1009.1 hPa 3.5 m/s 33.1 mm 21.6° 1009.7 hPa 1.2 m/s 4.0 mm 24.7° 1009.8 hPa 3.3 m/s
17:00 24.4° 1009.6 hPa 2.9 m/s 12.3 mm 25.0° 1009.6 hPa 5.5 m/s 34.5 mm 23.0° 1009.5 hPa 1.3 m/s 1.3 mm 25.0° 1009.5 hPa 2.5 m/s
20:00 23.3° 1009.7 hPa 2.3 m/s 0.0 mm 24.5° 1009.2 hPa 4.5 m/s 34.6 mm 22.3° 1009.7 hPa 1.6 m/s 0.0 mm 21.9° 1010.1 hPa 1.5 m/s
23:00 21.1° 1011.0 hPa 1.1 m/s 0.0 mm 21.7° 1010.3 hPa 2.5 m/s 34.6 mm 20.9° 1010.9 hPa 0.8 m/s 0.0 mm 19.0° 1011.8 hPa 1.8 m/s
 06:27     20:18    Daglengte: 13:51 Zaterdag 20 Aug
02:00 20.5° 1011.0 hPa 1.2 m/s 0.0 mm 22.9° 1011.1 hPa 1.8 m/s 34.6 mm 19.9° 1011.0 hPa 1.1 m/s 0.0 mm 18.1° 1012.3 hPa 2.0 m/s
05:00 19.5° 1011.3 hPa 1.7 m/s 0.0 mm 20.6° 1011.9 hPa 2.7 m/s 34.6 mm 19.3° 1011.1 hPa 1.4 m/s 0.0 mm 17.5° 1012.7 hPa 1.6 m/s
08:00 21.2° 1012.2 hPa 1.4 m/s 0.0 mm 24.1° 1013.0 hPa 3.1 m/s 34.6 mm 20.4° 1012.0 hPa 1.0 m/s 0.0 mm 19.4° 1013.4 hPa 0.8 m/s
11:00 27.6° 1013.1 hPa 1.8 m/s 34.6 mm 27.6° 1013.1 hPa 1.8 m/s 34.6 mm 25.6° 1013.5 hPa 1.6 m/s
14:00 30.8° 1012.5 hPa 2.9 m/s 34.6 mm 30.8° 1012.5 hPa 2.9 m/s 34.6 mm 28.9° 1013.3 hPa 2.0 m/s
17:00 29.5° 1012.6 hPa 1.2 m/s 53.7 mm 29.5° 1012.6 hPa 1.2 m/s 53.7 mm
20:00 23.8° 1013.0 hPa 1.2 m/s 53.7 mm 23.8° 1013.0 hPa 1.2 m/s 53.7 mm
23:00 21.6° 1014.2 hPa 1.8 m/s 53.7 mm 21.6° 1014.2 hPa 1.8 m/s 53.7 mm
 06:29     20:16    Daglengte: 13:47 Zondag 21 Aug
02:00 20.6° 1014.3 hPa 1.5 m/s 53.7 mm 20.6° 1014.3 hPa 1.5 m/s 53.7 mm
05:00 19.8° 1014.3 hPa 1.4 m/s 53.7 mm 19.8° 1014.3 hPa 1.4 m/s 53.7 mm
08:00 21.4° 1014.7 hPa 1.2 m/s 53.7 mm 21.4° 1014.7 hPa 1.2 m/s 53.7 mm
11:00 26.8° 1014.2 hPa 0.8 m/s 53.7 mm 26.8° 1014.2 hPa 0.8 m/s 53.7 mm
14:00 29.3° 1013.1 hPa 2.0 m/s 53.7 mm 29.3° 1013.1 hPa 2.0 m/s 53.7 mm
17:00 28.8° 1011.5 hPa 2.1 m/s 53.7 mm 28.8° 1011.5 hPa 2.1 m/s 53.7 mm
20:00 24.3° 1011.1 hPa 1.6 m/s 53.8 mm 24.3° 1011.1 hPa 1.6 m/s 53.8 mm
23:00 21.9° 1011.6 hPa 2.7 m/s 53.9 mm 21.9° 1011.6 hPa 2.7 m/s 53.9 mm
 06:30     20:15    Daglengte: 13:45 Maandag 22 Aug
02:00 19.5° 1011.5 hPa 2.4 m/s 54.4 mm 19.5° 1011.5 hPa 2.3 m/s 54.4 mm
05:00 19.0° 1011.6 hPa 1.5 m/s 55.1 mm 19.0° 1011.6 hPa 1.5 m/s 55.1 mm
08:00 19.8° 1012.8 hPa 2.2 m/s 55.6 mm 19.8° 1012.8 hPa 2.2 m/s 55.6 mm
11:00 25.7° 1012.9 hPa 2.0 m/s 56.0 mm 25.7° 1012.9 hPa 2.0 m/s 56.0 mm
14:00 27.4° 1012.7 hPa 3.6 m/s 56.6 mm 27.4° 1012.7 hPa 3.6 m/s 56.6 mm
17:00 27.2° 1011.8 hPa 3.2 m/s 57.2 mm 27.2° 1011.8 hPa 3.2 m/s 57.2 mm
20:00 23.2° 1012.1 hPa 2.2 m/s 57.5 mm 23.2° 1012.1 hPa 2.2 m/s 57.5 mm
23:00 21.9° 1013.1 hPa 2.3 m/s 57.5 mm 21.9° 1013.1 hPa 2.3 m/s 57.5 mm
 06:31     20:13    Daglengte: 13:42 Dinsdag 23 Aug
02:00 20.0° 1013.1 hPa 1.8 m/s 57.5 mm 20.0° 1013.1 hPa 1.8 m/s 57.5 mm
05:00 19.5° 1013.2 hPa 1.7 m/s 57.5 mm 19.5° 1013.2 hPa 1.7 m/s 57.5 mm
08:00 21.4° 1014.3 hPa 1.1 m/s 57.5 mm 21.4° 1014.3 hPa 1.1 m/s 57.5 mm
11:00 26.6° 1014.2 hPa 0.9 m/s 57.5 mm 26.6° 1014.2 hPa 0.9 m/s 57.5 mm
14:00 29.4° 1013.2 hPa 2.0 m/s 57.6 mm 29.4° 1013.2 hPa 2.0 m/s 57.6 mm
17:00 29.5° 1012.4 hPa 2.5 m/s 57.6 mm 29.5° 1012.4 hPa 2.5 m/s 57.6 mm
20:00 24.5° 1013.2 hPa 1.7 m/s 57.6 mm 24.5° 1013.2 hPa 1.7 m/s 57.6 mm
23:00 22.3° 1014.2 hPa 2.4 m/s 57.6 mm 22.3° 1014.2 hPa 2.4 m/s 57.6 mm
 06:32     20:11    Daglengte: 13:39 Woensdag 24 Aug
02:00 21.3° 1014.7 hPa 2.0 m/s 57.6 mm 21.3° 1014.7 hPa 2.0 m/s 57.6 mm
05:00 20.9° 1014.0 hPa 1.8 m/s 57.6 mm 20.9° 1014.0 hPa 1.8 m/s 57.6 mm
08:00 22.3° 1014.7 hPa 0.5 m/s 57.6 mm 22.3° 1014.7 hPa 0.5 m/s 57.6 mm
11:00 27.8° 1014.6 hPa 1.2 m/s 57.6 mm 27.8° 1014.6 hPa 1.2 m/s 57.6 mm
14:00 30.8° 1013.5 hPa 2.0 m/s 57.6 mm 30.8° 1013.5 hPa 2.0 m/s 57.6 mm
20:00 25.2° 1012.9 hPa 1.8 m/s 57.6 mm 25.2° 1012.9 hPa 1.8 m/s 57.6 mm
 06:33     20:09    Daglengte: 13:36 Donderdag 25 Aug
02:00 22.0° 1014.5 hPa 2.2 m/s 57.6 mm 22.0° 1014.5 hPa 2.2 m/s 57.6 mm
08:00 23.0° 1014.8 hPa 0.6 m/s 57.6 mm 23.0° 1014.8 hPa 0.6 m/s 57.6 mm
14:00 31.1° 1014.4 hPa 2.9 m/s 57.6 mm 31.1° 1014.4 hPa 2.9 m/s 57.6 mm
20:00 25.7° 1014.2 hPa 1.5 m/s 57.7 mm 25.7° 1014.2 hPa 1.5 m/s 57.7 mm
 06:35     20:07    Daglengte: 13:32 Vrijdag 26 Aug
02:00 22.4° 1015.7 hPa 1.9 m/s 57.7 mm 22.4° 1015.7 hPa 1.9 m/s 57.7 mm
08:00 23.4° 1016.3 hPa 1.1 m/s 57.7 mm 23.4° 1016.3 hPa 1.1 m/s 57.7 mm
14:00 33.0° 1015.2 hPa 1.8 m/s 57.7 mm 33.0° 1015.2 hPa 1.8 m/s 57.7 mm
20:00 27.3° 1014.5 hPa 1.8 m/s 57.7 mm 27.3° 1014.5 hPa 1.8 m/s 57.7 mm
 06:36     20:06    Daglengte: 13:30 Zaterdag 27 Aug
02:00 23.6° 1016.4 hPa 1.5 m/s 57.7 mm 23.6° 1016.4 hPa 1.5 m/s 57.7 mm
08:00 22.3° 1018.1 hPa 1.9 m/s 0.4 mm
14:00 31.7° 1016.6 hPa 1.8 m/s 0.2 mm
20:00 26.2° 1017.0 hPa 1.3 m/s 0.4 mm
 06:37     20:04    Daglengte: 13:27 Zondag 28 Aug
02:00 21.8° 1019.2 hPa 2.8 m/s 0.7 mm
08:00 22.2° 1019.5 hPa 1.7 m/s 0.6 mm
14:00 31.7° 1018.2 hPa 1.9 m/s 0.2 mm
20:00 26.3° 1018.2 hPa 0.8 m/s 0.4 mm
 06:38     20:02    Daglengte: 13:24 Maandag 29 Aug
02:00 21.6° 1020.1 hPa 2.6 m/s 0.2 mm
08:00 22.2° 1020.3 hPa 1.6 m/s 0.4 mm
14:00 31.6° 1018.7 hPa 2.0 m/s 0.2 mm
20:00 26.3° 1018.3 hPa 1.4 m/s 0.3 mm
 06:39     20:00    Daglengte: 13:21 Dinsdag 30 Aug
02:00 21.5° 1019.9 hPa 2.4 m/s 0.7 mm
08:00 22.1° 1019.7 hPa 1.6 m/s 0.5 mm
14:00 31.3° 1017.8 hPa 2.2 m/s 0.3 mm
20:00 25.9° 1017.2 hPa 0.9 m/s 0.6 mm
 06:41     19:58    Daglengte: 13:17 Woensdag 31 Aug
02:00 21.3° 1018.8 hPa 2.4 m/s 0.2 mm
08:00 21.6° 1018.3 hPa 1.6 m/s 0.6 mm
14:00 30.9° 1016.4 hPa 1.9 m/s 0.4 mm
20:00 25.4° 1016.0 hPa 1.3 m/s 0.7 mm
 06:42     19:56    Daglengte: 13:14 Donderdag 01 Sep
02:00 20.7° 1017.6 hPa 2.3 m/s 0.0 mm
08:00 21.1° 1017.5 hPa 1.7 m/s 0.4 mm
FMI Hirlam - 7.5 km EWN WRFDA - 12 km DWD ICON - 7 km GFS - 25 km Basiskaart






























































Updatetijd (Europe/Amsterdam) Resolutie Lengte Stap
FMI Hirlam 07:15, 13:15, 19:15, 01:15 7.5 km 49h 1h
EWN WRFDA 10:15, 16:15, 22:15, 04:15 12 km 73h 1h
DWD ICON 06:00, 12:00, 18:00, 00:00 7 km 75h 1h
GFS 08:15, 14:15, 20:15, 02:15 25 km 237h 3h
30+ mm
25-30 mm
20-25 mm
15-20 mm
10-15 mm
6-10 mm
4-6 mm
2-4 mm
1-2 mm
0.5-1 mm
0.2-0.5 mm
0.1-0.2 mm
30+ mm
25-30 mm
20-25 mm
15-20 mm
10-15 mm
6-10 mm
4-6 mm
2-4 mm
1-2 mm
0.5-1 mm
0.2-0.5 mm
0.1-0.2 mm
Sneeuwval
Natte sneeuw
Hagel
Vorst
30+ mm
25-30 mm
20-25 mm
15-20 mm
10-15 mm
6-10 mm
4-6 mm
2-4 mm
1-2 mm
0.5-1 mm
0.2-0.5 mm
0.1-0.2 mm
Sneeuwval
Natte sneeuw
Hagel
Vorst
Onweer
50 mm
40 mm
30 mm
26 mm